Location: Stoke Bliss
(52.2667°N, 2.5167°W)
Time: 13:37:07
(UTC+00:00)

CZ-4 R/B - Pass Details

Date: 03 March 2021
Orbit: 532 x 597 km, 97.7° (Epoch: 12 April)

Event Time Altitude Azimuth Distance (km) Brightness Sun altitude
Rises 19:39:52 0° 202° (SSW) 2,673 5.0 -17.0°
Reaches altitude 10° 19:42:24 10° 219° (SW) 1,793 4.3 -17.4°
Maximum altitude 19:45:19 20° 268° (W) 1,277 4.1 -17.8°
Drops below altitude 10° 19:48:18 10° 318° (NW) 1,825 4.8 -18.3°
Sets 19:50:54 0° 335° (NNW) 2,735 5.5 -18.7°
